Regional Weather Roundup
Issued by NWS

Home | Current Version | Previous Version | Text Only | Print | Product List | Glossary On
Versions: 1 2 3 4 5 6 7 8 9 10 11 12 13 14 15 16 17 18 19 20 21 22 23 24 25 26 27
000
ASUS45 KTFX 232210
RWRMT
MONTANA REGIONAL WEATHER ROUNDUP
NATIONAL WEATHER SERVICE GREAT FALLS MT
400 PM MDT SAT SEP 23 2017

NOTE: "FAIR" INDICATES FEW OR NO CLOUDS BELOW 12000 FEET WITH NO
SIGNIFICANT WEATHER AND/OR OBSTRUCTIONS TO VISIBILITY.

MTZ001>007-043-232300-
WEST OF THE DIVIDE

CITY           SKY/WX    TMP DP  RH WIND       PRES   REMARKS
KALISPELL      CLOUDY    51  37  58 VRB3      30.09R
MISSOULA       CLOUDY    51  33  50 N3        30.10S
BUTTE          CLOUDY    46  27  47 N5        30.07S
MULLAN PASS    CLOUDY    38  33  82 CALM      30.10R
ANACONDA         N/A     45  27  49 N8        30.08S
DEER LODGE       N/A     46  25  42 NW8       30.11S
EUREKA           N/A     54  36  50 CALM        N/A
HAMILTON         N/A     50  27  40 CALM      30.10S
LIBBY            N/A     59  36  41 W3        30.05F
PLAINS           N/A     57  35  43 CALM      30.09S
$$

MTZ008-052>055-232300-
SOUTHWEST MONTANA

CITY           SKY/WX    TMP DP  RH WIND       PRES   REMARKS
BOZEMAN        CLOUDY    48  34  58 CALM      30.08F
DILLON         CLOUDY    48  29  47 NE7       30.05S
W YELLOWSTONE  CLOUDY    46  23  39 MISG      30.00S
ENNIS          CLOUDY    46  32  57 NW13      30.10S
THREE FORKS      N/A     51  32  48 MISG      30.06S
TWIN BRIDGES     N/A     51  28  41 CALM      30.04S
$$

MTZ009-010-012-014-046-048-049-054-232300-
EAST SLOPES AND CENTRAL MONTANA

CITY           SKY/WX    TMP DP  RH WIND       PRES   REMARKS
CUT BANK       PTSUNNY   51  33  50 S8        30.04S
GREAT FALLS    MOSUNNY   52  28  39 CALM      30.06F
MALMSTROM AFB  MOSUNNY   52  31  44 SW9       30.07S
HELENA         CLOUDY    51  31  46 NW8       30.06F
BOWMANS CRNR   PTSUNNY   47  29  50 SW9       30.04S
CHOTEAU          N/A     52  32  46 VRB3      30.07S
FAIRFIELD      PTSUNNY   50  32  50 SW5       30.05S
POWER            N/A     49  29  47 W6        30.06S
RAYNESFORD     PTSUNNY   49  29  46 W8        30.07S
ULM            PTSUNNY   51  31  46 S3        30.07S
$$

MTZ011-013-016-021-045-047-050-051-232300-
NORTH CENTRAL MONTANA

CITY           SKY/WX    TMP DP  RH WIND       PRES   REMARKS
HAVRE          CLOUDY    54  36  50 NW3       30.08F
LEWISTOWN      CLOUDY    50  34  54 VRB3      30.06F
N BAR RANCH    CLOUDY    43  36  75 SE6       30.10F
CHINOOK          N/A     54  39  58 E9        30.08S
DENTON           N/A     51  36  57 CALM      30.04S
GEYSER         PTSUNNY   50  34  54 N3        30.06S
JUDITH GAP       N/A     46  35  64 S7        30.06F
WINIFRED       PTSUNNY   49  39  67 E13G23    30.07S
$$

MTZ017>020-022>027-061-062-232300-
NORTHEAST MONTANA

CITY           SKY/WX    TMP DP  RH WIND       PRES   REMARKS
GLASGOW        CLOUDY    51  35  54 SE6       30.12S
JORDAN           N/A     49  38  65 E6        30.11S
SIDNEY         LGT RAIN  48  42  80 NE6       30.12F
WOLF POINT     CLOUDY    52  35  52 E7        30.13F
MALTA          CLOUDY    50  41  71 S8        30.11F
PLENTYWOOD       N/A     52  36  54 CALM      30.12F
POPLAR           N/A     52  37  58 E3        30.13S
SCOBEY           N/A     50  33  51 CALM      30.10F
$$

MTZ028>42-056>058-232300-
SOUTHCENTRAL AND SOUTHEAST MONTANA

CITY           SKY/WX    TMP DP  RH WIND       PRES   REMARKS
BAKER          RAIN      44  42  93 NE7       30.09S FOG
BILLINGS       CLOUDY    45  39  79 NE5       30.08F
LIVINGSTON     CLOUDY    45  33  63 VRB3      30.07S
MILES CITY     LGT RAIN  44  40  85 NE8       30.09F
BIG TIMBER     CLOUDY    45  34  65 CALM      30.09F
EKALAKA          N/A     41  38  89 N6        30.04R
HARLOWTON      PTSUNNY   47  34  61 MISG      30.06F
LAUREL           N/A     45  41  87 CALM      30.10S
$$

REGIONAL REPORTS...DAKOTAS

CITY           SKY/WX    TMP DP  RH WIND       PRES   REMARKS
WILLISTON      CLOUDY    52  39  61 N3        30.12F
MINOT          CLOUDY    54  42  64 N9        30.10F
DICKINSON      LGT RAIN  46  44  93 NE10      30.06F
BEACH          DRIZZLE   45  45 100 N8        30.12F
CROSBY         CLOUDY    50  37  62 N6        30.14S
TIOGA          PTSUNNY   46  46 100 NE8       30.14R
WATFORD CITY   PTSUNNY   48  43  81 N7        30.12R
BISMARCK       CLOUDY    57  45  64 N10       30.07F
GRAND FORKS    CLOUDY    62  50  64 N10       30.05R
FARGO          CLOUDY    61  51  70 N10       30.03S
BUFFALO SD       N/A     46  44  93 NE8       30.01R
RAPID CITY     LGT RAIN  46  45  93 N6        30.06R FOG
$$

REGIONAL REPORTS...WYOMING/IDAHO/WASHINGTON

CITY           SKY/WX    TMP DP  RH WIND       PRES   REMARKS
GILLETTE       CLOUDY    42  41  96 N8        30.02F
SHERIDAN       LGT RAIN  43  41  93 N5        30.06S
BUFFALO WY     LGT RAIN  39  36  89 N10       30.04F FOG
CODY           CLOUDY    41  35  79 NW8       30.06R
IDAHO FALLS    MOSUNNY   54  35  48 VRB7      29.99F
SALMON         CLOUDY    54  29  38 N3        30.05F
BOISE          SUNNY     60  37  42 NW10      30.03S
SPOKANE        PTSUNNY   58  39  49 SW5       30.08S
$$

REGIONAL REPORTS...ALBERTA

CITY           SKY/WX    TMP DP  RH WIND       PRES   REMARKS
EDMONTON       CLOUDY    54  39  58 S8        30.03S
CALGARY        MOSUNNY   52  32  46 S12       30.03S
LETHBRIDGE     PTSUNNY   52  36  54 NE6       30.05R
MEDICINE HAT   CLOUDY    52  36  54 E5        30.07S
$$

REGIONAL REPORTS...SASKATCHEWAN

CITY           SKY/WX    TMP DP  RH WIND       PRES   REMARKS
SWIFT CURRENT    N/A     50  34  53 S8        30.10S
REGINA         PTSUNNY   52  34  50 N7        30.14S
SASKATOON      CLOUDY    52  39  62 S8        30.14R
$$




USA.gov is the U.S. government's official web portal to all federal, state and local government web resources and services.